JLY7554 SBGR-SBUL

Flight info

Callsign JLY7554
Flight time 0h 50m
Altitude 32000
Route ISMOB UZ26 KEXIT/N0448F340
Aircraft B737/M-SDE2E3FGHIRWXY/LB1

Departure

Time 2026-04-21 03:06
Airport São Paulo/Guarulhos–Governor André Franco Montoro International Airport (SBGR)

Arrival

Time 2026-04-21 03:56
Airport Ten. Cel. Aviador César Bombonato Airport (SBUL)
Time Latitude Longitude Altitude Speed Heading
2026-04-21 02:47 -23.42784 -46.47958 2470 ft 0 kts 264°
2026-04-21 02:57 -23.42782 -46.47945 2470 ft 4 kts 262°
2026-04-21 02:57 -23.42777 -46.47916 2469 ft 4 kts 250°
2026-04-21 02:58 -23.42765 -46.47892 2467 ft 4 kts 212°
2026-04-21 02:58 -23.42752 -46.47887 2467 ft 0 kts 171°
2026-04-21 03:00 -23.42754 -46.47887 2467 ft 1 kts 171°
2026-04-21 03:00 -23.42773 -46.47884 2468 ft 5 kts 171°
2026-04-21 03:00 -23.42811 -46.47877 2471 ft 6 kts 171°
2026-04-21 03:01 -23.42847 -46.47864 2468 ft 6 kts 147°
2026-04-21 03:01 -23.42880 -46.47843 2467 ft 5 kts 155°
2026-04-21 03:01 -23.42916 -46.47831 2467 ft 5 kts 167°
2026-04-21 03:01 -23.42952 -46.47822 2470 ft 5 kts 167°
2026-04-21 03:02 -23.42997 -46.47811 2470 ft 9 kts 168°
2026-04-21 03:02 -23.43042 -46.47859 2467 ft 12 kts 252°
2026-04-21 03:02 -23.43069 -46.47950 2473 ft 13 kts 252°
2026-04-21 03:02 -23.43095 -46.48040 2467 ft 12 kts 252°
2026-04-21 03:03 -23.43117 -46.48128 2469 ft 12 kts 255°
2026-04-21 03:03 -23.43138 -46.48215 2468 ft 12 kts 255°
2026-04-21 03:03 -23.43158 -46.48298 2469 ft 11 kts 255°
2026-04-21 03:03 -23.43185 -46.48377 2468 ft 11 kts 226°
2026-04-21 03:04 -23.43255 -46.48378 2473 ft 11 kts 162°
2026-04-21 03:04 -23.43325 -46.48355 2469 ft 10 kts 164°
2026-04-21 03:04 -23.43391 -46.48326 2469 ft 10 kts 138°
2026-04-21 03:04 -23.43408 -46.48257 2468 ft 10 kts 76°
2026-04-21 03:05 -23.43370 -46.48123 2469 ft 44 kts 73°
2026-04-21 03:05 -23.43215 -46.47546 2468 ft 113 kts 73°
2026-04-21 03:05 -23.42942 -46.46536 2474 ft 167 kts 75°
2026-04-21 03:05 -23.42589 -46.45224 2858 ft 184 kts 73°
2026-04-21 03:06 -23.42112 -46.43946 3723 ft 184 kts 52°
2026-04-21 03:06 -23.41118 -46.43014 4388 ft 197 kts 41°
2026-04-21 03:06 -23.39960 -46.42022 4664 ft 226 kts 41°
2026-04-21 03:06 -23.38650 -46.40897 5104 ft 249 kts 41°
2026-04-21 03:07 -23.37285 -46.39712 5935 ft 255 kts 44°
2026-04-21 03:07 -23.35957 -46.38320 6492 ft 273 kts 49°
2026-04-21 03:07 -23.34633 -46.36822 7227 ft 282 kts 49°
2026-04-21 03:07 -23.33261 -46.35261 8039 ft 288 kts 49°
2026-04-21 03:08 -23.31855 -46.33680 8891 ft 293 kts 49°
2026-04-21 03:08 -23.30411 -46.32069 9720 ft 299 kts 49°
2026-04-21 03:08 -23.28939 -46.30431 10412 ft 309 kts 48°
2026-04-21 03:08 -23.27369 -46.28684 10625 ft 335 kts 48°
2026-04-21 03:09 -23.25722 -46.26854 11099 ft 348 kts 48°
2026-04-21 03:09 -23.23995 -46.24942 11833 ft 352 kts 47°
2026-04-21 03:09 -23.22021 -46.23390 12596 ft 360 kts 24°
2026-04-21 03:09 -23.19561 -46.22878 13409 ft 365 kts 359°
2026-04-21 03:10 -23.17049 -46.23326 14167 ft 369 kts 341°
2026-04-21 03:10 -23.14740 -46.24564 14849 ft 372 kts 328°
2026-04-21 03:10 -23.12552 -46.26071 15586 ft 374 kts 326°
2026-04-21 03:10 -23.10376 -46.27643 16307 ft 377 kts 325°
2026-04-21 03:11 -23.08187 -46.29241 17014 ft 380 kts 325°
2026-04-21 03:11 -23.05977 -46.30847 17717 ft 383 kts 326°
2026-04-21 03:11 -23.03737 -46.32460 18417 ft 386 kts 326°
2026-04-21 03:11 -23.01487 -46.34069 19021 ft 389 kts 326°
2026-04-21 03:12 -22.99217 -46.35683 19653 ft 390 kts 325°
2026-04-21 03:12 -22.96933 -46.37301 20240 ft 393 kts 326°
2026-04-21 03:12 -22.94638 -46.38924 20905 ft 394 kts 326°
2026-04-21 03:12 -22.92333 -46.40549 21531 ft 396 kts 326°
2026-04-21 03:13 -22.90012 -46.42184 22112 ft 399 kts 326°
2026-04-21 03:13 -22.87670 -46.43832 22687 ft 402 kts 326°
2026-04-21 03:13 -22.85314 -46.45490 23268 ft 405 kts 326°
2026-04-21 03:13 -22.82937 -46.47163 23817 ft 408 kts 326°
2026-04-21 03:14 -22.80544 -46.48845 24270 ft 411 kts 326°
2026-04-21 03:14 -22.78168 -46.50516 24695 ft 415 kts 326°
2026-04-21 03:14 -22.75738 -46.52224 25130 ft 418 kts 326°
2026-04-21 03:14 -22.73290 -46.53944 25571 ft 421 kts 326°
2026-04-21 03:15 -22.70823 -46.55676 25997 ft 424 kts 326°
2026-04-21 03:15 -22.68333 -46.57423 26417 ft 427 kts 325°
2026-04-21 03:15 -22.65825 -46.59183 26804 ft 431 kts 326°
2026-04-21 03:15 -22.63293 -46.60958 27196 ft 434 kts 326°
2026-04-21 03:16 -22.60751 -46.62740 27591 ft 437 kts 326°
2026-04-21 03:16 -22.58188 -46.64536 27965 ft 440 kts 326°
2026-04-21 03:16 -22.55606 -46.66344 28329 ft 443 kts 326°
2026-04-21 03:16 -22.53050 -46.68133 28693 ft 445 kts 326°
2026-04-21 03:17 -22.50436 -46.69962 29141 ft 446 kts 326°
2026-04-21 03:17 -22.47835 -46.71781 29680 ft 444 kts 326°
2026-04-21 03:17 -22.45240 -46.73594 30222 ft 443 kts 326°
2026-04-21 03:17 -22.42653 -46.75402 30648 ft 443 kts 326°
2026-04-21 03:18 -22.40065 -46.77209 31031 ft 444 kts 326°
2026-04-21 03:18 -22.37468 -46.79023 31430 ft 444 kts 326°
2026-04-21 03:18 -22.34871 -46.80835 31867 ft 444 kts 325°
2026-04-21 03:18 -22.32267 -46.82651 32097 ft 447 kts 325°
2026-04-21 03:19 -22.27024 -46.86306 32085 ft 447 kts 325°
2026-04-21 03:19 -22.21825 -46.89926 32093 ft 443 kts 325°
2026-04-21 03:20 -22.16563 -46.93598 32109 ft 458 kts 326°
2026-04-21 03:20 -22.11173 -46.97351 32102 ft 470 kts 326°
2026-04-21 03:21 -22.05616 -47.01208 32100 ft 479 kts 326°
2026-04-21 03:21 -21.99957 -47.05131 32093 ft 486 kts 326°
2026-04-21 03:22 -21.94243 -47.09088 32084 ft 488 kts 326°
2026-04-21 03:22 -21.88529 -47.13043 32089 ft 488 kts 326°
2026-04-21 03:23 -21.82838 -47.16976 32089 ft 488 kts 327°
2026-04-21 03:23 -21.76626 -47.19903 32084 ft 489 kts 344°
2026-04-21 03:24 -21.69888 -47.21019 32079 ft 490 kts 353°
2026-04-21 03:24 -21.64245 -47.21667 32075 ft 490 kts 353°
2026-04-21 03:25 -21.57467 -47.22496 32068 ft 490 kts 352°
2026-04-21 03:25 -21.50698 -47.23377 32072 ft 490 kts 352°
2026-04-21 03:26 -21.43969 -47.24261 32068 ft 490 kts 352°
2026-04-21 03:26 -21.37203 -47.25143 32067 ft 489 kts 352°
2026-04-21 03:27 -21.30443 -47.26145 32067 ft 489 kts 350°
2026-04-21 03:27 -21.23757 -47.27312 32066 ft 489 kts 350°
2026-04-21 03:28 -21.17042 -47.28481 32066 ft 489 kts 350°
2026-04-21 03:28 -21.10309 -47.29622 32066 ft 489 kts 350°
2026-04-21 03:29 -21.03572 -47.30750 32064 ft 489 kts 350°
2026-04-21 03:29 -20.96846 -47.31875 32063 ft 489 kts 350°
2026-04-21 03:30 -20.90155 -47.32995 32061 ft 489 kts 350°
2026-04-21 03:30 -20.83425 -47.34121 32067 ft 489 kts 350°
2026-04-21 03:31 -20.76696 -47.35246 32064 ft 489 kts 350°
2026-04-21 03:31 -20.69955 -47.36372 32066 ft 489 kts 350°
2026-04-21 03:32 -20.63271 -47.37488 32068 ft 489 kts 350°
2026-04-21 03:32 -20.56581 -47.38842 32050 ft 488 kts 341°
2026-04-21 03:33 -20.50154 -47.41197 32063 ft 488 kts 340°
2026-04-21 03:33 -20.43736 -47.43588 32054 ft 488 kts 340°
2026-04-21 03:34 -20.37347 -47.45930 32062 ft 489 kts 340°
2026-04-21 03:34 -20.30901 -47.48265 32052 ft 489 kts 340°
2026-04-21 03:35 -20.24445 -47.50596 32049 ft 489 kts 340°
2026-04-21 03:35 -20.18035 -47.52908 32019 ft 474 kts 340°
2026-04-21 03:36 -20.14966 -47.54014 32025 ft 456 kts 340°
2026-04-21 03:36 -20.12005 -47.55081 31888 ft 444 kts 340°
2026-04-21 03:36 -20.09095 -47.56130 31524 ft 438 kts 340°
2026-04-21 03:36 -20.06256 -47.57154 31095 ft 434 kts 340°
2026-04-21 03:37 -20.03367 -47.58196 30668 ft 431 kts 340°
2026-04-21 03:37 -20.00533 -47.59218 30224 ft 429 kts 340°
2026-04-21 03:37 -19.97751 -47.60221 29709 ft 427 kts 340°
2026-04-21 03:37 -19.94950 -47.61229 29220 ft 423 kts 340°
2026-04-21 03:38 -19.92169 -47.62230 28736 ft 419 kts 340°
2026-04-21 03:38 -19.89414 -47.63221 28262 ft 416 kts 340°
2026-04-21 03:38 -19.86684 -47.64202 27787 ft 413 kts 340°
2026-04-21 03:38 -19.83976 -47.65175 27323 ft 409 kts 340°
2026-04-21 03:39 -19.81289 -47.66141 26869 ft 406 kts 340°
2026-04-21 03:39 -19.78612 -47.67102 26410 ft 404 kts 340°
2026-04-21 03:39 -19.75954 -47.68057 25960 ft 401 kts 340°
2026-04-21 03:39 -19.73352 -47.68991 25497 ft 400 kts 340°
2026-04-21 03:40 -19.70723 -47.69934 25043 ft 398 kts 340°
2026-04-21 03:40 -19.68106 -47.70873 24572 ft 396 kts 340°
2026-04-21 03:40 -19.65494 -47.71809 24111 ft 395 kts 340°
2026-04-21 03:40 -19.62893 -47.72742 23647 ft 394 kts 340°
2026-04-21 03:41 -19.60296 -47.73673 23110 ft 392 kts 340°
2026-04-21 03:41 -19.57725 -47.74594 22636 ft 389 kts 340°
2026-04-21 03:41 -19.55174 -47.75507 22166 ft 386 kts 340°
2026-04-21 03:41 -19.52642 -47.76413 21707 ft 382 kts 340°
2026-04-21 03:42 -19.50134 -47.77311 21257 ft 379 kts 340°
2026-04-21 03:42 -19.47641 -47.78203 20803 ft 377 kts 341°
2026-04-21 03:42 -19.45169 -47.79087 20351 ft 374 kts 341°
2026-04-21 03:42 -19.42737 -47.79956 19909 ft 372 kts 341°
2026-04-21 03:43 -19.40289 -47.80831 19443 ft 370 kts 341°
2026-04-21 03:43 -19.37861 -47.81699 18988 ft 368 kts 341°
2026-04-21 03:43 -19.35432 -47.82566 18534 ft 367 kts 341°
2026-04-21 03:43 -19.33017 -47.83429 18042 ft 365 kts 341°
2026-04-21 03:44 -19.30612 -47.84287 17565 ft 363 kts 341°
2026-04-21 03:44 -19.28229 -47.85137 17106 ft 360 kts 341°
2026-04-21 03:44 -19.25863 -47.85981 16655 ft 357 kts 341°
2026-04-21 03:44 -19.23516 -47.86818 16212 ft 354 kts 341°
2026-04-21 03:45 -19.21193 -47.87647 15769 ft 351 kts 341°
2026-04-21 03:45 -19.18881 -47.88471 15330 ft 349 kts 341°
2026-04-21 03:45 -19.16612 -47.89279 14884 ft 347 kts 342°
2026-04-21 03:45 -19.14328 -47.90093 14450 ft 345 kts 342°
2026-04-21 03:46 -19.12052 -47.90903 13993 ft 344 kts 342°
2026-04-21 03:46 -19.09785 -47.91710 13523 ft 343 kts 342°
2026-04-21 03:46 -19.07534 -47.92511 13058 ft 340 kts 342°
2026-04-21 03:46 -19.05303 -47.93305 12613 ft 337 kts 342°
2026-04-21 03:47 -19.03092 -47.94091 12184 ft 333 kts 342°
2026-04-21 03:47 -19.00905 -47.94869 11752 ft 330 kts 342°
2026-04-21 03:47 -18.98738 -47.95639 11326 ft 327 kts 342°
2026-04-21 03:47 -18.96584 -47.96405 10932 ft 324 kts 342°
2026-04-21 03:48 -18.94453 -47.97162 10519 ft 322 kts 341°
2026-04-21 03:48 -18.92354 -47.97907 10290 ft 312 kts 342°
2026-04-21 03:48 -18.90332 -47.98626 10129 ft 301 kts 341°
2026-04-21 03:48 -18.88375 -47.99321 9992 ft 290 kts 341°
2026-04-21 03:49 -18.86503 -47.99985 9537 ft 291 kts 342°
2026-04-21 03:49 -18.84594 -48.00663 9151 ft 290 kts 343°
2026-04-21 03:49 -18.82689 -48.01339 8783 ft 288 kts 342°
2026-04-21 03:49 -18.80798 -48.02010 8410 ft 286 kts 342°
2026-04-21 03:50 -18.78919 -48.02676 8047 ft 284 kts 342°
2026-04-21 03:50 -18.77053 -48.03337 7690 ft 282 kts 342°
2026-04-21 03:50 -18.75191 -48.04005 7293 ft 283 kts 339°
2026-04-21 03:50 -18.73567 -48.05158 6904 ft 284 kts 311°
2026-04-21 03:51 -18.72644 -48.06939 6837 ft 272 kts 287°
2026-04-21 03:51 -18.72389 -48.08879 6742 ft 262 kts 274°
2026-04-21 03:51 -18.72291 -48.10768 6629 ft 253 kts 273°
2026-04-21 03:51 -18.72201 -48.12566 6503 ft 245 kts 273°
2026-04-21 03:52 -18.72361 -48.14307 6296 ft 234 kts 244°
2026-04-21 03:52 -18.73372 -48.15542 6145 ft 218 kts 212°
2026-04-21 03:52 -18.74644 -48.16330 5860 ft 205 kts 206°
2026-04-21 03:52 -18.75871 -48.16964 5619 ft 189 kts 201°
2026-04-21 03:53 -18.77036 -48.17509 5366 ft 176 kts 200°
2026-04-21 03:53 -18.78120 -48.18000 5157 ft 166 kts 199°
2026-04-21 03:53 -18.79144 -48.18461 4932 ft 155 kts 198°
2026-04-21 03:53 -18.80105 -48.18895 4778 ft 147 kts 198°
2026-04-21 03:54 -18.81045 -48.19315 4552 ft 146 kts 198°
2026-04-21 03:54 -18.81968 -48.19728 4362 ft 147 kts 198°
2026-04-21 03:54 -18.82911 -48.20152 4174 ft 147 kts 199°
2026-04-21 03:54 -18.83848 -48.20574 3975 ft 145 kts 199°
2026-04-21 03:55 -18.84765 -48.20985 3789 ft 142 kts 200°
2026-04-21 03:55 -18.85670 -48.21392 3585 ft 141 kts 201°
2026-04-21 03:55 -18.86572 -48.21797 3369 ft 139 kts 202°
2026-04-21 03:55 -18.87449 -48.22191 3143 ft 133 kts 202°
2026-04-21 03:56 -18.88197 -48.22518 3107 ft 89 kts 203°
2026-04-21 03:56 -18.88570 -48.22682 3108 ft 27 kts 202°
2026-04-21 03:56 -18.88621 -48.22705 3108 ft 8 kts 202°
2026-04-21 03:56 -18.88678 -48.22730 3108 ft 9 kts 202°
2026-04-21 03:57 -18.88734 -48.22754 3107 ft 9 kts 202°
2026-04-21 03:57 -18.88769 -48.22800 3105 ft 9 kts 248°
2026-04-21 03:57 -18.88796 -48.22869 3101 ft 11 kts 248°
2026-04-21 03:57 -18.88847 -48.22929 3100 ft 11 kts 198°
2026-04-21 03:58 -18.88909 -48.22954 3099 ft 8 kts 202°
2026-04-21 03:58 -18.88942 -48.22988 3099 ft 5 kts 253°
2026-04-21 03:58 -18.88951 -48.23015 3099 ft 3 kts 250°
2026-04-21 03:58 -18.88954 -48.23024 3099 ft 1 kts 250°
2026-04-21 03:59 -18.88954 -48.23026 3099 ft 0 kts 250°